Weather History for KFGN - December, 2013

Change the Weather History Date:

Sunday, December 29, 2013

  Actual Average Record
Temperature  
Mean Temperature -18 °F -  
Max Temperature -11 °F 11 °F 32 °F (1999)
Min Temperature -25 °F 0 °F -29 °F (1996)
Degree Days  
Heating Degree Days 83    
Moisture  
Dew Point -26 °F    
Average Humidity 73    
Maximum Humidity 77    
Minimum Humidity 64    
Precipitation  
Precipitation 0.00 in - - ()
Sea Level Pressure  
Sea Level Pressure 30.25 in    
Wind  
Wind Speed 8 mph (West)    
Max Wind Speed 15 mph    
Max Gust Speed -    
Visibility 10 miles    
Events      
Averages and records for this station are not official NWS values.
T = Trace of Precipitation, MM = Missing Value Source: NWS Daily Summary

Daily Weather History Graph

Daily Weather History Graph

Search for Another Location

Airport or City:

Trip Planner

Search our weather history database for the weather conditions in past years. The results will help you decide how hot, cold, wet, or windy it might be!

Date:

Astronomy

Dec. 29, 2013 Rise Set
Actual Time 8:14 AM CST 4:28 PM CST
Civil Twilight 7:37 AM CST 5:06 PM CST
Nautical Twilight 6:56 AM CST 5:47 PM CST
Astronomical Twilight 6:17 AM CST 6:26 PM CST
Moon 4:51 AM CST (12/29) 2:14 PM CST (12/29)
Length of Visible Light 9h 29m
Length of Day
8h 13m
Waning Crescent, 11% of the Moon is Illuminated
Dec 29
Waning Crescent
Jan 1
New
Jan 7
First Quarter
Jan 15
Full
Jan 23
Last Quarter

Hourly Weather History & Observations

Time (CST) Temp. Windchill Dew Point Humidity Pressure Visibility Wind Dir Wind Speed Gust Speed Precip Events Conditions
12:14 AM -16.6 °F -38.9 °F -23.8 °F 70% 30.34 in 10.0 mi NNW 12.7 mph - N/A   Clear
12:33 AM -18.4 °F -42.9 °F -23.8 °F 76% 30.34 in 10.0 mi NNW 15.0 mph - N/A   Clear
12:53 AM -18.4 °F -42.1 °F -23.8 °F 76% 30.35 in 10.0 mi NNW 13.8 mph - N/A   Clear
1:14 AM -18.4 °F -42.1 °F -25.6 °F 70% 30.35 in 10.0 mi NW 13.8 mph - N/A   Clear
1:33 AM -20.2 °F -42.4 °F -25.6 °F 76% 30.35 in 10.0 mi NNW 11.5 mph - N/A   Clear
1:53 AM -20.2 °F -42.4 °F -27.4 °F 69% 30.35 in 10.0 mi NNW 11.5 mph - N/A   Clear
2:14 AM -22.0 °F -44.7 °F -27.4 °F 76% 30.35 in 10.0 mi NNW 11.5 mph - N/A   Clear
2:33 AM -22.0 °F -43.6 °F -27.4 °F 76% 30.36 in 10.0 mi NW 10.4 mph - N/A   Clear
2:53 AM -22.0 °F -46.6 °F -29.2 °F 69% 30.36 in 10.0 mi NW 13.8 mph - N/A   Clear
3:13 AM -23.8 °F -48.0 °F -29.2 °F 76% 30.37 in 10.0 mi NW 12.7 mph - N/A   Clear
3:33 AM -23.8 °F -45.8 °F -29.2 °F 76% 30.37 in 10.0 mi NW 10.4 mph - N/A   Clear
3:54 AM -23.8 °F -45.8 °F -29.2 °F 76% 30.37 in 10.0 mi NW 10.4 mph - N/A   Clear
4:13 AM -23.8 °F -44.5 °F -31.0 °F 69% 30.37 in 10.0 mi NW 9.2 mph - N/A   Clear
4:33 AM -25.6 °F -45.4 °F -31.0 °F 76% 30.36 in 10.0 mi NW 8.1 mph - N/A   Clear
4:54 AM -25.6 °F -46.8 °F -31.0 °F 76% 30.35 in 10.0 mi NW 9.2 mph - N/A   Clear
5:13 AM -25.6 °F -49.2 °F -31.0 °F 76% 30.35 in 10.0 mi WNW 11.5 mph - N/A   Clear
5:33 AM -25.6 °F -49.2 °F -31.0 °F 76% 30.35 in 10.0 mi WNW 11.5 mph - N/A   Clear
5:53 AM -25.6 °F -46.8 °F -31.0 °F 76% 30.35 in 10.0 mi WNW 9.2 mph - N/A   Unknown
6:13 AM -25.6 °F -46.8 °F -31.0 °F 76% 30.35 in 10.0 mi WNW 9.2 mph - N/A   Clear
6:34 AM -25.6 °F -43.8 °F -31.0 °F 76% 30.35 in 10.0 mi WNW 6.9 mph - N/A   Clear
6:53 AM -25.6 °F -41.9 °F -31.0 °F 76% 30.35 in 10.0 mi WNW 5.8 mph - N/A   Clear
7:13 AM -25.6 °F - -32.8 °F 69% 30.34 in 10.0 mi Calm Calm - N/A   Clear
7:34 AM -25.6 °F - -32.8 °F 69% 30.34 in 10.0 mi Calm Calm - N/A   Clear
7:53 AM -25.6 °F - -32.8 °F 69% 30.32 in 10.0 mi Calm Calm - N/A   Unknown
8:13 AM -25.6 °F - -32.8 °F 69% 30.32 in 10.0 mi Calm Calm - N/A   Clear
8:34 AM -25.6 °F -37.1 °F -32.8 °F 69% 30.32 in - WNW 3.5 mph - N/A   Unknown
8:53 AM -25.6 °F - -32.8 °F 69% 30.32 in 10.0 mi Calm Calm - N/A   Clear
9:13 AM -25.6 °F - -32.8 °F 69% 30.32 in 10.0 mi Calm Calm - N/A   Unknown
9:32 AM -23.8 °F - -29.2 °F 76% 30.32 in 10.0 mi Calm Calm - N/A   Unknown
9:53 AM -23.8 °F -37.7 °F -29.2 °F 76% 30.32 in 10.0 mi NW 4.6 mph - N/A   Unknown
10:13 AM -20.2 °F -37.3 °F -27.4 °F 69% 30.32 in 10.0 mi WNW 6.9 mph - N/A   Clear
10:34 AM -20.2 °F -38.8 °F -25.6 °F 76% 30.31 in 10.0 mi WNW 8.1 mph - N/A   Clear
10:53 AM -18.4 °F -33.4 °F -25.6 °F 70% 30.31 in 10.0 mi NW 5.8 mph - N/A   Clear
11:13 AM -18.4 °F -33.4 °F -25.6 °F 70% 30.30 in 10.0 mi NW 5.8 mph - N/A   Clear
11:34 AM -16.6 °F -29.3 °F -23.8 °F 70% 30.29 in 10.0 mi WNW 4.6 mph - N/A   Clear
11:53 AM -14.8 °F -30.8 °F -23.8 °F 64% 30.27 in 10.0 mi NW 6.9 mph - N/A   Clear
12:13 PM -14.8 °F -30.8 °F -22.0 °F 70% 30.26 in 10.0 mi NW 6.9 mph - N/A   Clear
12:34 PM -13.0 °F -27.0 °F -22.0 °F 64% 30.25 in 10.0 mi NW 5.8 mph - N/A   Clear
12:53 PM -14.8 °F -29.1 °F -23.8 °F 64% 30.24 in 10.0 mi SSE 5.8 mph - N/A   Clear
1:13 PM -14.8 °F -24.8 °F -22.0 °F 70% 30.23 in 10.0 mi SE 3.5 mph - N/A   Clear
1:33 PM -14.8 °F -27.2 °F -22.0 °F 70% 30.22 in 10.0 mi SE 4.6 mph - N/A   Clear
1:53 PM -14.8 °F -24.8 °F -20.2 °F 77% 30.21 in 10.0 mi ESE 3.5 mph - N/A   Clear
2:13 PM -13.0 °F -22.7 °F -20.2 °F 70% 30.21 in 10.0 mi SSE 3.5 mph - N/A   Clear
2:33 PM -13.0 °F -22.7 °F -20.2 °F 70% 30.20 in 10.0 mi South 3.5 mph - N/A   Clear
2:53 PM -11.2 °F -20.6 °F -20.2 °F 64% 30.19 in 10.0 mi ESE 3.5 mph - N/A   Clear
3:14 PM -13.0 °F - -20.2 °F 70% 30.19 in 10.0 mi Calm Calm - N/A   Clear
3:33 PM -13.0 °F - -20.2 °F 70% 30.18 in 10.0 mi Calm Calm - N/A   Clear
3:53 PM -13.0 °F - -20.2 °F 70% 30.18 in 10.0 mi Calm Calm - N/A   Clear
4:14 PM -14.8 °F - -20.2 °F 77% 30.18 in 10.0 mi Calm Calm - N/A   Clear
4:33 PM -14.8 °F -24.8 °F -20.2 °F 77% 30.17 in 10.0 mi South 3.5 mph - N/A   Clear
4:54 PM -14.8 °F -27.2 °F -20.2 °F 77% 30.17 in 10.0 mi SSW 4.6 mph - N/A   Clear
5:13 PM -14.8 °F -30.8 °F -20.2 °F 77% 30.16 in 10.0 mi SSW 6.9 mph - N/A   Clear
5:33 PM -14.8 °F -32.2 °F -20.2 °F 77% 30.16 in 10.0 mi SSW 8.1 mph - N/A   Clear
5:54 PM -16.6 °F -35.7 °F -22.0 °F 76% 30.15 in 10.0 mi SW 9.2 mph - N/A   Clear
6:13 PM -16.6 °F -34.4 °F -23.8 °F 70% 30.15 in 10.0 mi SW 8.1 mph - N/A   Clear
6:33 PM -16.6 °F -34.4 °F -23.8 °F 70% 30.15 in 10.0 mi SW 8.1 mph - N/A   Clear
6:54 PM -16.6 °F -34.4 °F -23.8 °F 70% 30.14 in - SW 8.1 mph - N/A   Unknown
7:13 PM -16.6 °F -34.4 °F -23.8 °F 70% 30.13 in 10.0 mi SW 8.1 mph - N/A   Clear
7:34 PM -18.4 °F -33.4 °F -23.8 °F 76% 30.13 in 10.0 mi SW 5.8 mph - N/A   Clear
7:53 PM -18.4 °F -33.4 °F -25.6 °F 70% 30.13 in 10.0 mi SW 5.8 mph - N/A   Clear
8:13 PM -18.4 °F -28.9 °F -23.8 °F 76% 30.13 in 10.0 mi SW 3.5 mph - N/A   Clear
8:33 PM -20.2 °F - -25.6 °F 76% 30.13 in 10.0 mi Calm Calm - N/A   Clear
8:53 PM -20.2 °F - -25.6 °F 76% 30.13 in 10.0 mi Calm Calm - N/A   Clear
9:13 PM -20.2 °F -30.9 °F -25.6 °F 76% 30.12 in 10.0 mi South 3.5 mph - N/A   Clear
9:33 PM -20.2 °F - -25.6 °F 76% 30.12 in 10.0 mi Calm Calm - N/A   Clear
9:53 PM -20.2 °F - -25.6 °F 76% 30.12 in 10.0 mi Calm Calm - N/A   Clear
10:13 PM -22.0 °F -33.0 °F -27.4 °F 76% 30.12 in 10.0 mi SSE 3.5 mph - N/A   Clear
10:34 PM -22.0 °F -33.0 °F -27.4 °F 76% 30.12 in 10.0 mi SSE 3.5 mph - N/A   Clear
10:53 PM -20.2 °F -30.9 °F -27.4 °F 69% 30.12 in 10.0 mi South 3.5 mph - N/A   Clear
11:13 PM -22.0 °F -33.0 °F -27.4 °F 76% 30.11 in 10.0 mi SSE 3.5 mph - N/A   Clear
11:34 PM -22.0 °F -33.0 °F -27.4 °F 76% 30.11 in 10.0 mi SSE 3.5 mph - N/A   Clear
11:53 PM -22.0 °F - -27.4 °F 76% 30.12 in 10.0 mi Calm Calm - N/A   Clear